Time,TemperatureF,DewpointF,PressureIn,WindDirection,WindDirectionDegrees,WindSpeedMPH,WindSpeedGustMPH,Humidity,HourlyPrecipIn,Conditions,Clouds,dailyrainin,SoftwareType,DateUTC
2013-05-28 00:01:00,59.3,54.0,30.20,NW,318,0.0,-999.0,83,-99.99,,,0.00,weatherlink.com 1.10,2013-05-28 04:01:00,
2013-05-28 00:16:00,59.2,54.0,30.20,NW,318,0.0,-999.0,84,-99.99,,,0.00,weatherlink.com 1.10,2013-05-28 04:16:00,
2013-05-28 00:31:00,58.6,54.0,30.20,NW,318,0.0,-999.0,84,-99.99,,,0.00,weatherlink.com 1.10,2013-05-28 04:31:00,
2013-05-28 00:46:00,58.6,54.0,30.20,NW,318,0.0,-999.0,84,-99.99,,,0.00,weatherlink.com 1.10,2013-05-28 04:46:00,
2013-05-28 01:01:00,58.7,54.0,30.20,NW,318,0.0,-999.0,84,-99.99,,,0.00,weatherlink.com 1.10,2013-05-28 05:01:00,
2013-05-28 01:16:00,58.4,54.0,30.20,NW,318,0.0,-999.0,84,-99.99,,,0.00,weatherlink.com 1.10,2013-05-28 05:16:00,
2013-05-28 01:31:00,58.6,54.0,30.20,NW,318,0.0,-999.0,85,-99.99,,,0.00,weatherlink.com 1.10,2013-05-28 05:31:00,
2013-05-28 01:46:00,58.6,54.0,30.20,NW,318,0.0,-999.0,84,-99.99,,,0.00,weatherlink.com 1.10,2013-05-28 05:46:00,
2013-05-28 02:01:00,58.3,54.0,30.19,NW,318,0.0,-999.0,86,-99.99,,,0.00,weatherlink.com 1.10,2013-05-28 06:01:00,
2013-05-28 02:16:00,58.3,54.0,30.19,NW,318,0.0,-999.0,86,-99.99,,,0.00,weatherlink.com 1.10,2013-05-28 06:16:00,
2013-05-28 02:31:00,58.3,55.0,30.19,NW,318,0.0,-999.0,88,-99.99,,,0.00,weatherlink.com 1.10,2013-05-28 06:31:00,
2013-05-28 02:46:00,58.3,55.0,30.18,NW,318,0.0,-999.0,88,-99.99,,,0.00,weatherlink.com 1.10,2013-05-28 06:46:00,
2013-05-28 03:01:00,58.7,55.0,30.18,NW,318,0.0,-999.0,86,-99.99,,,0.00,weatherlink.com 1.10,2013-05-28 07:01:00,
2013-05-28 03:16:00,58.7,55.0,30.18,NW,318,0.0,-999.0,86,-99.99,,,0.00,weatherlink.com 1.10,2013-05-28 07:16:00,
2013-05-28 03:31:00,58.4,54.0,30.17,NW,318,0.0,-999.0,86,-99.99,,,0.00,weatherlink.com 1.10,2013-05-28 07:31:00,
2013-05-28 03:46:00,58.4,55.0,30.16,NW,318,0.0,-999.0,87,-99.99,,,0.00,weatherlink.com 1.10,2013-05-28 07:46:00,
2013-05-28 04:01:00,58.3,55.0,30.16,NW,318,0.0,-999.0,87,-99.99,,,0.00,weatherlink.com 1.10,2013-05-28 08:01:00,
2013-05-28 04:16:00,58.9,55.0,30.16,NW,318,0.0,-999.0,87,-99.99,,,0.00,weatherlink.com 1.10,2013-05-28 08:16:00,
2013-05-28 04:46:00,60.1,57.0,30.16,East,94,0.0,-999.0,90,-99.99,,,0.00,weatherlink.com 1.10,2013-05-28 08:46:00,
2013-05-28 05:01:00,61.0,58.0,30.15,East,94,0.0,-999.0,91,-99.99,,,0.00,weatherlink.com 1.10,2013-05-28 09:01:00,
2013-05-28 05:16:00,61.5,59.0,30.15,East,94,0.0,-999.0,92,-99.99,,,0.00,weatherlink.com 1.10,2013-05-28 09:16:00,
2013-05-28 05:31:00,62.0,60.0,30.16,East,94,0.0,-999.0,93,-99.99,,,0.00,weatherlink.com 1.10,2013-05-28 09:31:00,
2013-05-28 05:46:00,62.3,60.0,30.16,East,94,0.0,-999.0,93,-99.99,,,0.00,weatherlink.com 1.10,2013-05-28 09:46:00,
2013-05-28 06:01:00,62.4,60.0,30.16,East,94,0.0,-999.0,93,-99.99,,,0.00,weatherlink.com 1.10,2013-05-28 10:01:00,
2013-05-28 06:16:00,62.4,61.0,30.16,East,94,0.0,-999.0,94,-99.99,,,0.00,weatherlink.com 1.10,2013-05-28 10:16:00,
2013-05-28 06:32:00,62.4,61.0,30.17,East,94,0.0,-999.0,94,-99.99,,,0.00,weatherlink.com 1.10,2013-05-28 10:32:00,
2013-05-28 06:46:00,62.3,61.0,30.16,East,94,0.0,-999.0,95,-99.99,,,0.00,weatherlink.com 1.10,2013-05-28 10:46:00,
2013-05-28 07:01:00,62.3,61.0,30.17,East,94,0.0,-999.0,95,-99.99,,,0.00,weatherlink.com 1.10,2013-05-28 11:01:00,
2013-05-28 07:16:00,62.1,61.0,30.17,East,94,0.0,-999.0,95,-99.99,,,0.00,weatherlink.com 1.10,2013-05-28 11:16:00,
2013-05-28 07:31:00,62.7,60.0,30.17,East,94,0.0,-999.0,92,-99.99,,,0.00,weatherlink.com 1.10,2013-05-28 11:31:00,
2013-05-28 07:46:00,63.2,60.0,30.17,SE,142,1.0,-999.0,88,-99.99,,,0.00,weatherlink.com 1.10,2013-05-28 11:46:00,
2013-05-28 08:01:00,63.7,59.0,30.17,SE,144,0.0,-999.0,85,-99.99,,,0.00,weatherlink.com 1.10,2013-05-28 12:01:00,
2013-05-28 08:16:00,64.3,59.0,30.17,SE,140,5.0,-999.0,83,-99.99,,,0.00,weatherlink.com 1.10,2013-05-28 12:16:00,
2013-05-28 08:31:00,64.7,59.0,30.17,SSE,149,0.0,-999.0,81,-99.99,,,0.00,weatherlink.com 1.10,2013-05-28 12:31:00,
2013-05-28 08:46:00,65.6,60.0,30.17,South,169,0.0,-999.0,81,-99.99,,,0.00,weatherlink.com 1.10,2013-05-28 12:46:00,
2013-05-28 09:01:00,66.4,59.0,30.17,South,180,4.0,-999.0,77,-99.99,,,0.00,weatherlink.com 1.10,2013-05-28 13:01:00,
2013-05-28 09:16:00,66.4,59.0,30.17,SSE,150,4.0,-999.0,76,-99.99,,,0.00,weatherlink.com 1.10,2013-05-28 13:16:00,
2013-05-28 09:31:00,65.8,59.0,30.17,SW,218,0.0,-999.0,79,-99.99,,,0.00,weatherlink.com 1.10,2013-05-28 13:31:00,
2013-05-28 09:46:00,65.5,60.0,30.18,SW,218,0.0,-999.0,82,-99.99,,,0.01,weatherlink.com 1.10,2013-05-28 13:46:00,
2013-05-28 10:01:00,64.0,60.0,30.17,SSW,210,0.0,-999.0,88,-99.99,,,0.03,weatherlink.com 1.10,2013-05-28 14:01:00,
2013-05-28 10:16:00,63.9,61.0,30.16,SSW,210,0.0,-999.0,91,-99.99,,,0.04,weatherlink.com 1.10,2013-05-28 14:16:00,
2013-05-28 10:31:00,63.9,61.0,30.16,SSW,210,0.0,-999.0,91,-99.99,,,0.04,weatherlink.com 1.10,2013-05-28 14:31:00,
2013-05-28 10:46:00,64.0,62.0,30.17,West,266,0.0,-999.0,92,-99.99,,,0.04,weatherlink.com 1.10,2013-05-28 14:46:00,
2013-05-28 11:01:00,64.7,62.0,30.17,West,263,0.0,-999.0,91,-99.99,,,0.04,weatherlink.com 1.10,2013-05-28 15:01:00,
2013-05-28 11:16:00,66.6,62.0,30.17,NNW,341,1.0,-999.0,86,-99.99,,,0.04,weatherlink.com 1.10,2013-05-28 15:16:00,
2013-05-28 11:31:00,67.9,62.0,30.17,NW,326,0.0,-999.0,82,-99.99,,,0.04,weatherlink.com 1.10,2013-05-28 15:31:00,
2013-05-28 11:46:00,68.8,61.0,30.16,SW,230,0.0,-999.0,77,-99.99,,,0.04,weatherlink.com 1.10,2013-05-28 15:46:00,
2013-05-28 12:01:00,70.6,64.0,30.16,West,261,0.0,-999.0,80,-99.99,,,0.04,weatherlink.com 1.10,2013-05-28 16:01:00,
2013-05-28 12:16:00,71.1,63.0,30.15,SW,235,0.0,-999.0,76,-99.99,,,0.04,weatherlink.com 1.10,2013-05-28 16:16:00,
2013-05-28 12:31:00,72.8,64.0,30.15,SSE,158,1.0,-999.0,75,-99.99,,,0.04,weatherlink.com 1.10,2013-05-28 16:31:00,
2013-05-28 12:46:00,72.8,65.0,30.14,ESE,122,1.0,-999.0,77,-99.99,,,0.04,weatherlink.com 1.10,2013-05-28 16:46:00,
2013-05-28 13:01:00,73.5,66.0,30.14,SSE,153,5.0,-999.0,77,-99.99,,,0.04,weatherlink.com 1.10,2013-05-28 17:01:00,
2013-05-28 13:16:00,73.2,65.0,30.13,SE,132,1.0,-999.0,76,-99.99,,,0.04,weatherlink.com 1.10,2013-05-28 17:16:00,
2013-05-28 13:31:00,74.2,66.0,30.12,ESE,120,2.0,-999.0,76,-99.99,,,0.04,weatherlink.com 1.10,2013-05-28 17:31:00,
2013-05-28 13:46:00,74.2,65.0,30.12,NNE,20,0.0,-999.0,74,-99.99,,,0.04,weatherlink.com 1.10,2013-05-28 17:46:00,
2013-05-28 14:01:00,75.8,67.0,30.12,NE,38,0.0,-999.0,75,-99.99,,,0.04,weatherlink.com 1.10,2013-05-28 18:01:00,
2013-05-28 14:16:00,74.6,66.0,30.12,SE,144,0.0,-999.0,74,-99.99,,,0.04,weatherlink.com 1.10,2013-05-28 18:16:00,
2013-05-28 14:31:00,73.7,66.0,30.12,ESE,117,0.0,-999.0,76,-99.99,,,0.04,weatherlink.com 1.10,2013-05-28 18:31:00,
2013-05-28 14:46:00,74.2,67.0,30.12,ENE,58,2.0,-999.0,77,-99.99,,,0.04,weatherlink.com 1.10,2013-05-28 18:46:00,
2013-05-28 15:01:00,74.6,66.0,30.12,NE,53,2.0,-999.0,74,-99.99,,,0.04,weatherlink.com 1.10,2013-05-28 19:01:00,
2013-05-28 15:16:00,74.9,66.0,30.11,NNE,33,1.0,-999.0,74,-99.99,,,0.04,weatherlink.com 1.10,2013-05-28 19:16:00,
2013-05-28 15:31:00,75.6,67.0,30.11,ESE,120,0.0,-999.0,75,-99.99,,,0.04,weatherlink.com 1.10,2013-05-28 19:31:00,
2013-05-28 15:46:00,77.0,69.0,30.11,SSE,152,0.0,-999.0,75,-99.99,,,0.04,weatherlink.com 1.10,2013-05-28 19:46:00,
2013-05-28 16:01:00,77.9,68.0,30.10,ESE,122,2.0,-999.0,72,-99.99,,,0.04,weatherlink.com 1.10,2013-05-28 20:01:00,
2013-05-28 16:16:00,77.9,68.0,30.10,SSE,151,0.0,-999.0,71,-99.99,,,0.04,weatherlink.com 1.10,2013-05-28 20:16:00,
2013-05-28 16:31:00,77.2,68.0,30.09,SE,141,2.0,-999.0,73,-99.99,,,0.04,weatherlink.com 1.10,2013-05-28 20:31:00,
2013-05-28 16:46:00,76.5,68.0,30.09,SE,141,0.0,-999.0,74,-99.99,,,0.04,weatherlink.com 1.10,2013-05-28 20:46:00,
2013-05-28 17:02:00,76.5,68.0,30.09,SE,141,3.0,-999.0,75,-99.99,,,0.04,weatherlink.com 1.10,2013-05-28 21:02:00,
2013-05-28 17:16:00,77.6,70.0,30.09,SE,143,0.0,-999.0,76,-99.99,,,0.04,weatherlink.com 1.10,2013-05-28 21:16:00,
2013-05-28 17:31:00,77.2,69.0,30.08,SE,135,1.0,-999.0,76,-99.99,,,0.04,weatherlink.com 1.10,2013-05-28 21:31:00,
2013-05-28 17:47:00,77.9,70.0,30.08,SE,146,0.0,-999.0,76,-99.99,,,0.04,weatherlink.com 1.10,2013-05-28 21:47:00,
2013-05-28 18:01:00,78.3,69.0,30.07,SSE,147,0.0,-999.0,74,-99.99,,,0.04,weatherlink.com 1.10,2013-05-28 22:01:00,
2013-05-28 18:17:00,78.1,69.0,30.07,SSE,158,0.0,-999.0,73,-99.99,,,0.04,weatherlink.com 1.10,2013-05-28 22:17:00,
2013-05-28 18:32:00,77.4,68.0,30.07,SSE,148,1.0,-999.0,73,-99.99,,,0.04,weatherlink.com 1.10,2013-05-28 22:32:00,
2013-05-28 18:47:00,76.5,68.0,30.07,SE,134,3.0,-999.0,75,-99.99,,,0.04,weatherlink.com 1.10,2013-05-28 22:47:00,
2013-05-28 19:02:00,76.1,67.0,30.07,SSW,207,0.0,-999.0,74,-99.99,,,0.04,weatherlink.com 1.10,2013-05-28 23:02:00,
2013-05-28 19:17:00,75.8,67.0,30.07,SE,139,0.0,-999.0,75,-99.99,,,0.04,weatherlink.com 1.10,2013-05-28 23:17:00,
2013-05-28 19:32:00,74.0,68.0,30.07,SSE,155,0.0,-999.0,82,-99.99,,,0.05,weatherlink.com 1.10,2013-05-28 23:32:00,
2013-05-28 19:47:00,71.8,69.0,30.07,SE,138,1.0,-999.0,89,-99.99,,,0.06,weatherlink.com 1.10,2013-05-28 23:47:00,
2013-05-28 20:02:00,71.8,69.0,30.07,SE,133,0.0,-999.0,90,-99.99,,,0.09,weatherlink.com 1.10,2013-05-29 00:02:00,
2013-05-28 20:17:00,70.6,68.0,30.09,South,179,0.0,-999.0,92,-99.99,,,0.13,weatherlink.com 1.10,2013-05-29 00:17:00,
2013-05-28 20:32:00,70.1,69.0,30.08,South,179,0.0,-999.0,95,-99.99,,,0.14,weatherlink.com 1.10,2013-05-29 00:32:00,
2013-05-28 20:47:00,69.8,69.0,30.08,South,179,0.0,-999.0,96,-99.99,,,0.14,weatherlink.com 1.10,2013-05-29 00:47:00,
2013-05-28 21:02:00,69.4,69.0,30.08,South,179,0.0,-999.0,97,-99.99,,,0.14,weatherlink.com 1.10,2013-05-29 01:02:00,
2013-05-28 21:17:00,69.4,69.0,30.08,South,179,3.0,-999.0,98,-99.99,,,0.14,weatherlink.com 1.10,2013-05-29 01:17:00,
2013-05-28 21:32:00,69.4,69.0,30.09,South,179,0.0,-999.0,98,-99.99,,,0.14,weatherlink.com 1.10,2013-05-29 01:32:00,
2013-05-28 21:47:00,69.3,69.0,30.09,SE,136,0.0,-999.0,98,-99.99,,,0.14,weatherlink.com 1.10,2013-05-29 01:47:00,
2013-05-28 22:02:00,68.6,68.0,30.09,SSE,153,4.0,-999.0,99,-99.99,,,0.14,weatherlink.com 1.10,2013-05-29 02:02:00,
2013-05-28 22:17:00,68.4,68.0,30.09,SSW,199,4.0,-999.0,99,-99.99,,,0.14,weatherlink.com 1.10,2013-05-29 02:17:00,
2013-05-28 22:32:00,68.3,68.0,30.10,SE,139,2.0,-999.0,99,-99.99,,,0.14,weatherlink.com 1.10,2013-05-29 02:32:00,
2013-05-28 22:47:00,67.9,67.0,30.10,SSE,167,3.0,-999.0,98,-99.99,,,0.14,weatherlink.com 1.10,2013-05-29 02:47:00,
2013-05-28 23:02:00,67.8,67.0,30.09,SSE,148,4.0,-999.0,98,-99.99,,,0.14,weatherlink.com 1.10,2013-05-29 03:02:00,
2013-05-28 23:17:00,67.8,67.0,30.09,SE,141,4.0,-999.0,98,-99.99,,,0.14,weatherlink.com 1.10,2013-05-29 03:17:00,
2013-05-28 23:32:00,67.9,67.0,30.09,South,172,3.0,-999.0,98,-99.99,,,0.14,weatherlink.com 1.10,2013-05-29 03:32:00,
2013-05-28 23:47:00,67.9,67.0,30.09,South,183,3.0,-999.0,98,-99.99,,,0.14,weatherlink.com 1.10,2013-05-29 03:47:00,